This is the latest recevied weather packets stored in our database for station/object KD2ZLA. If no packets are shown the sender has not sent any weather packets the latest 10 day(s).
| Time | Temp. | Humidity | Pressure | Rain* | Wind** | Luminosity | Snow |
|---|---|---|---|---|---|---|---|
| 1777930189 | 20.56° C | 38% | 1002.6 hPa | 0 mm | - | 169 W/m² | - |
| 1777929884 | 20.56° C | 40% | 1002.5 hPa | 0 mm | - | 257 W/m² | - |
| 1777929582 | 21.11° C | 39% | 1002.4 hPa | 0 mm | - | 316 W/m² | - |
| 1777929278 | 21.11° C | 39% | 1002.5 hPa | 0 mm | - | 308 W/m² | - |
| 1777928976 | 20.56° C | 40% | 1002.4 hPa | 0 mm | - | 343 W/m² | - |
| 1777928673 | 20.56° C | 39% | 1002.8 hPa | 0 mm | - | 402 W/m² | - |
| 1777928369 | 20.56° C | 40% | 1002.7 hPa | 0 mm | - | 374 W/m² | - |
| 1777928067 | 20.56° C | 39% | 1002.6 hPa | 0 mm | - | 355 W/m² | - |
| 1777927765 | 20.56° C | 38% | 1002.7 hPa | 0 mm | - | 421 W/m² | - |
| 1777927463 | 20.56° C | 40% | 1002.8 hPa | 0 mm | - | 459 W/m² | - |
| 1777927162 | 20.56° C | 40% | 1003 hPa | 0 mm | - | 416 W/m² | - |
| 1777926859 | 20.56° C | 41% | 1002.7 hPa | 0 mm | - | 487 W/m² | - |
| 1777926555 | 20.56° C | 41% | 1002.8 hPa | 0 mm | - | 504 W/m² | - |
| 1777926252 | 20.56° C | 40% | 1002.9 hPa | 0 mm | - | 538 W/m² | - |
| 1777925949 | 20.56° C | 42% | 1002.9 hPa | 0 mm | - | 539 W/m² | - |
| 1777925646 | 20.56° C | 41% | 1002.9 hPa | 0 mm | - | 581 W/m² | - |
| 1777925343 | 20° C | 43% | 1003.1 hPa | 0 mm | - | 541 W/m² | - |
| 1777925040 | 20.56° C | 41% | 1003 hPa | 0 mm | - | 632 W/m² | - |
| 1777924737 | 20° C | 41% | 1003.1 hPa | 0 mm | - | 460 W/m² | - |
| 1777924432 | 20.56° C | 40% | 1003.2 hPa | 0 mm | - | 552 W/m² | - |
| 1777924129 | 20.56° C | 40% | 1003.1 hPa | 0 mm | - | 575 W/m² | - |
| 1777923825 | 20° C | 43% | 1003.2 hPa | 0 mm | - | 604 W/m² | - |
| 1777923521 | 20° C | 41% | 1003.1 hPa | 0 mm | - | 592 W/m² | - |
| 1777923218 | 20° C | 42% | 1003 hPa | 0 mm | - | 616 W/m² | - |
| 1777922917 | 20° C | 42% | 1003 hPa | 0 mm | - | 640 W/m² | - |
* Rain latest hour (hover to see other rain measurements)
** Current wind speed in m/s (hover to see current wind gust speed)